Wind_Speed
42 39 38 37 34 24 23 23 21 13 12 5 12 6 5 9 11 12 11 9 14 17 23 22 21 21 20 20 19 19 17 15 11 7 4 3 5 8 10 13 12 13 15 18
45 46 44 40 37 31 27 27 27 20 13 10 6 16 9 2 6 8 11 15 19 23 21 22 22 21 19 20 19 17 15 12 9 5 2 2 5 8 11 11 11 12 14 17
45 52 46 43 41 38 33 34 32 26 18 13 10 17 8 4 5 9 14 17 17 16 18 20 24 25 24 21 19 17 15 12 8 4 0 3 7 8 11 12 13 13 15 19
36 44 50 49 45 43 39 44 35 31 25 20 15 11 19 11 9 12 17 14 13 16 17 18 20 21 21 20 18 16 14 11 8 5 4 5 9 10 11 12 12 15 17 19
23 33 44 51 53 47 55 43 39 35 30 24 15 16 18 15 16 18 20 16 15 18 21 21 18 17 16 15 14 12 12 11 10 9 7 8 11 12 14 15 15 16 19 20
30 21 29 44 53 53 60 48 45 41 35 25 25 20 17 21 18 18 20 17 19 20 22 22 21 18 18 17 16 15 14 13 12 12 11 11 14 15 16 17 17 18 20 23
32 28 22 29 45 57 61 56 50 46 37 33 38 28 29 25 24 24 24 23 22 23 26 25 19 18 18 18 17 16 14 14 15 14 15 16 18 20 19 19 19 19 21 24
37 34 37 34 26 40 56 59 56 51 46 46 44 33 39 34 29 28 25 26 28 28 33 28 24 22 20 20 18 16 17 16 15 16 18 20 21 23 22 22 22 21 22 25
44 40 46 37 35 29 39 51 63 57 55 51 44 40 43 39 34 33 32 31 32 34 37 32 28 25 24 25 20 18 19 21 20 20 22 21 23 26 25 23 25 26 25 27
49 48 49 43 40 31 29 36 51 57 59 55 53 50 45 47 44 41 37 36 41 38 36 36 33 34 30 29 26 24 23 25 25 23 25 25 26 28 28 26 28 29 29 31
59 56 56 47 33 41 41 40 34 44 57 61 57 49 53 55 53 47 47 44 41 37 38 37 37 38 34 35 34 31 31 29 30 28 28 30 31 32 31 31 31 31 33 36
67 62 57 48 44 44 37 39 39 32 34 50 63 56 65 63 58 56 52 49 48 44 40 37 37 41 33 37 37 35 36 36 34 36 33 33 34 36 36 36 37 36 37 40
75 68 62 57 50 44 38 45 46 43 35 34 44 63 69 68 66 62 59 57 54 50 49 50 47 46 43 41 39 38 40 41 38 39 38 37 37 39 40 41 41 41 43 46
81 77 70 61 58 61 54 53 49 44 33 39 29 47 65 75 73 71 68 65 64 61 59 55 51 47 48 48 47 41 43 43 42 42 43 42 41 42 44 44 45 46 48 51
88 80 79 69 69 70 64 59 55 50 44 34 39 39 45 63 76 77 73 73 67 65 64 58 56 53 52 48 47 48 49 46 45 45 48 46 45 47 49 50 49 50 52 55
95 84 86 78 75 76 74 69 58 54 50 43 40 44 43 49 52 64 75 77 74 73 68 65 65 61 60 61 56 57 58 53 50 50 51 52 51 53 55 55 54 55 56 57
107 98 92 84 87 85 92 65 63 60 58 54 53 52 55 50 53 48 49 64 78 80 77 76 72 71 66 64 65 62 60 61 59 56 55 58 58 59 61 62 60 59 61 62
115 110 107 95 97 101 71 73 72 68 64 59 57 58 57 56 55 57 46 45 57 72 82 80 80 76 75 71 68 68 68 65 65 64 62 62 64 66 67 66 65 64 66 65
118 120 112 106 107 98 84 80 77 76 69 69 61 61 58 58 58 50 52 48 42 55 62 77 83 80 82 79 74 73 68 69 67 70 68 67 69 69 72 71 70 70 70 70
126 125 121 114 110 103 88 85 84 86 81 73 65 61 62 63 61 55 55 53 46 43 52 54 68 82 87 84 81 81 78 76 72 72 73 75 76 75 75 77 76 76 75 75
136 133 129 123 116 107 100 94 89 94 85 75 70 66 64 65 64 60 59 53 50 44 50 51 56 64 77 84 86 85 84 82 78 80 80 81 77 79 80 80 80 82 80 78
135 135 130 127 121 114 106 101 99 94 89 79 75 68 62 53 52 54 57 57 49 48 47 49 50 51 59 67 79 83 86 84 85 87 85 86 85 84 85 84 84 86 84 83
129 133 124 126 122 120 110 103 102 97 91 83 79 70 61 56 57 53 55 54 53 52 52 49 52 55 58 62 65 73 76 86 87 89 90 91 90 86 87 88 86 85 82 84
103 115 118 114 119 119 111 103 99 99 94 87 82 65 64 62 53 55 56 57 57 56 54 49 47 52 54 58 62 64 65 69 75 81 87 90 89 87 84 89 87 82 81 72
88 99 103 100 109 112 94 94 89 89 80 77 77 72 74 69 63 60 59 59 54 52 48 47 49 49 51 49 47 47 45 44 52 68 74 76 79 81 79 77 75 69 51 56
86 87 90 91 98 94 75 63 62 76 80 76 72 64 63 64 54 52 50 46 44 44 42 39 44 47 43 41 36 35 45 47 56 52 53 59 51 55 63 60 55 32 42 72
Wind_Direction
241 239 232 243 250 245 234 241 247 242 256 193 194 209 207 220 214 207 206 202 198 178 171 164 161 159 158 157 155 153 145 136 131 118 94 70 32 17 11 7 8 17 15 14
237 236 237 242 247 249 250 241 238 241 232 242 178 222 253 198 166 185 189 197 174 168 175 168 164 166 166 164 160 157 150 142 139 144 97 16 5 7 2 1 4 5 4 8
235 237 237 234 236 240 237 243 237 232 227 239 216 208 228 228 170 188 171 171 171 180 185 184 175 172 173 172 169 168 167 165 180 182 205 332 345 350 356 355 355 354 350 0
244 236 233 234 233 236 235 233 235 232 224 216 230 213 225 219 209 181 172 187 191 183 190 194 182 181 180 178 180 180 181 192 213 236 288 323 334 339 344 343 346 348 350 349
267 249 236 232 231 231 237 234 236 234 230 217 213 242 226 224 207 192 200 191 185 192 191 194 195 194 192 192 192 195 206 210 226 243 277 305 324 323 331 334 340 344 350 347
267 262 249 236 233 228 236 237 235 235 231 220 222 232 230 233 231 212 214 215 193 202 204 204 199 205 199 201 207 211 217 225 232 248 267 294 311 315 320 326 329 334 335 338
262 260 255 250 237 232 232 234 233 232 229 224 228 209 229 230 221 220 217 216 215 204 214 207 216 215 220 221 221 227 233 235 243 251 267 287 303 310 312 320 322 321 322 322
257 255 255 251 252 247 237 234 233 231 228 228 227 211 230 218 227 221 219 225 220 214 218 216 218 227 236 238 235 236 243 245 244 256 262 273 287 296 302 312 317 319 316 317
255 255 252 254 249 258 247 241 234 231 233 227 229 224 235 222 220 231 222 222 229 228 228 227 224 224 234 243 240 245 246 250 247 251 259 265 276 286 294 303 311 312 315 315
251 250 255 254 251 254 249 248 246 236 235 230 227 226 226 237 222 220 226 228 226 222 231 235 231 234 236 247 251 251 253 255 256 256 260 262 270 279 288 297 303 307 309 311
251 254 252 255 261 256 250 250 244 247 237 236 231 228 231 231 237 229 226 228 234 232 231 238 241 239 236 239 248 256 258 256 258 257 259 264 270 278 286 291 296 303 306 306
256 255 256 261 255 261 261 259 252 250 258 243 237 230 233 235 232 236 237 233 231 235 236 236 244 237 239 244 245 251 256 256 257 261 259 264 274 279 285 289 295 298 299 301
256 257 255 259 263 269 276 270 259 254 236 240 241 239 236 235 236 235 237 238 237 235 234 237 237 240 245 244 245 251 255 258 258 262 266 266 270 276 282 286 290 295 298 300
251 254 256 258 261 259 261 264 263 260 263 247 228 234 244 237 236 234 235 236 236 237 240 240 241 244 237 245 247 245 253 258 263 264 267 269 272 277 281 284 288 293 296 299
249 251 254 255 258 261 262 262 264 268 262 251 243 229 241 247 239 238 237 239 240 240 242 243 244 241 231 245 254 258 257 255 259 261 266 267 271 274 278 282 286 289 294 297
252 249 250 251 253 258 259 257 261 265 266 256 243 243 242 255 254 246 240 239 241 241 243 244 246 244 243 247 249 248 257 258 258 261 265 270 271 274 277 280 284 288 291 294
254 252 248 249 252 252 250 260 262 261 260 259 256 249 248 249 264 260 249 244 239 242 240 240 240 245 248 248 250 253 254 260 262 263 266 270 273 274 276 279 283 286 289 292
250 251 254 250 250 250 261 256 257 255 256 257 258 255 254 255 259 264 264 255 247 242 241 241 242 243 245 245 247 251 255 257 259 260 263 266 270 273 275 277 280 283 285 289
247 249 249 251 252 252 247 250 254 257 257 255 257 257 256 256 257 259 269 271 253 250 249 246 241 244 247 248 247 249 251 252 255 262 263 264 266 269 273 276 278 281 284 288
242 244 244 244 246 250 249 247 247 252 253 255 257 259 256 257 261 262 267 266 254 246 245 245 249 241 241 243 245 248 249 250 253 258 260 264 268 270 273 276 279 282 284 287
241 240 242 244 242 246 244 242 242 245 252 256 255 256 255 256 259 264 266 259 256 248 237 244 250 247 249 247 246 248 249 250 249 250 254 259 261 265 268 272 276 279 284 288
234 238 240 243 245 243 242 241 243 247 250 253 257 258 257 261 261 263 270 258 251 248 241 241 252 255 251 251 249 249 249 251 253 254 254 256 259 262 266 270 274 278 283 287
226 230 234 239 242 243 241 242 245 245 247 248 252 255 253 257 262 265 256 250 246 239 243 244 248 253 255 253 255 253 254 255 255 256 258 258 258 260 264 270 273 279 285 288
221 222 225 230 235 240 239 238 242 244 246 246 249 252 253 258 256 264 249 240 243 247 244 246 253 258 258 259 261 263 264 266 266 265 264 264 265 265 266 268 272 280 284 289
213 215 216 221 230 235 236 237 236 241 244 246 249 252 254 259 258 261 240 235 240 244 245 251 255 257 256 258 264 272 274 276 280 271 266 267 267 268 269 270 273 278 296 277
206 206 207 213 224 229 223 228 237 234 240 247 248 249 254 260 249 238 235 239 237 241 245 249 250 252 253 253 262 267 266 286 298 303 273 269 275 280 273 271 270 266 269 240
Height
10935 10937 10936 10940 10944 10951 10953 10953 10954 10955 10955 10956 10955 10957 10956 10956 10956 10954 10956 10958 10962 10964 10968 10970 10972 10975 10978 10980 10983 10985 10987 10988 10990 10991 10992 10992 10992 10991 10990 10988 10987 10985 10983 10982
10925 10924 10928 10935 10938 10943 10946 10948 10948 10951 10951 10953 10953 10955 10956 10955 10953 10954 10955 10957 10961 10964 10968 10969 10972 10975 10978 10981 10983 10985 10987 10988 10990 10992 10991 10991 10991 10990 10989 10988 10987 10985 10984 10983
10912 10913 10921 10925 10928 10933 10937 10938 10942 10945 10949 10950 10950 10954 10955 10956 10955 10956 10957 10961 10962 10965 10969 10971 10971 10973 10976 10978 10980 10983 10986 10989 10990 10990 10990 10989 10989 10989 10988 10986 10985 10983 10982 10981
10900 10906 10910 10915 10920 10922 10928 10924 10934 10940 10944 10946 10949 10952 10955 10957 10958 10957 10959 10962 10963 10965 10970 10973 10974 10975 10977 10979 10981 10983 10986 10988 10988 10988 10988 10988 10987 10986 10986 10985 10984 10982 10980 10980
10894 10894 10899 10905 10906 10914 10905 10921 10928 10934 10939 10945 10948 10949 10953 10956 10955 10956 10959 10958 10959 10964 10967 10971 10975 10977 10977 10979 10981 10983 10984 10985 10986 10986 10986 10986 10985 10985 10983 10982 10981 10980 10979 10978
10884 10889 10889 10893 10898 10903 10894 10912 10919 10925 10933 10943 10945 10946 10948 10948 10950 10953 10957 10958 10957 10963 10967 10970 10970 10973 10974 10975 10978 10979 10980 10981 10983 10984 10985 10984 10984 10983 10983 10982 10980 10978 10975 10974
10876 10881 10883 10883 10884 10887 10888 10897 10908 10916 10927 10935 10930 10940 10936 10941 10945 10947 10952 10954 10957 10960 10966 10966 10969 10971 10973 10974 10975 10976 10978 10979 10979 10980 10980 10981 10980 10980 10980 10980 10979 10977 10974 10972
10868 10871 10871 10872 10878 10879 10883 10887 10896 10904 10915 10918 10922 10936 10931 10936 10940 10943 10947 10949 10954 10956 10960 10961 10963 10967 10969 10970 10972 10974 10974 10975 10976 10976 10977 10976 10976 10976 10976 10975 10974 10973 10971 10969
10854 10861 10855 10866 10868 10873 10871 10880 10879 10894 10900 10909 10919 10925 10923 10931 10936 10936 10942 10946 10946 10950 10955 10955 10957 10960 10964 10964 10967 10970 10971 10971 10972 10972 10971 10972 10971 10970 10970 10971 10970 10968 10965 10963
10841 10846 10846 10853 10859 10867 10868 10865 10871 10883 10890 10898 10904 10911 10920 10917 10924 10930 10933 10937 10940 10944 10944 10946 10951 10952 10957 10961 10962 10962 10966 10966 10966 10967 10966 10965 10965 10965 10965 10966 10965 10962 10960 10957
10821 10828 10830 10840 10853 10853 10857 10861 10863 10867 10878 10888 10894 10910 10904 10904 10908 10916 10920 10925 10928 10935 10939 10939 10942 10945 10949 10951 10954 10956 10959 10959 10960 10960 10960 10959 10959 10958 10958 10958 10958 10958 10954 10951
10800 10809 10820 10832 10838 10841 10848 10855 10859 10864 10868 10874 10882 10896 10884 10889 10899 10903 10908 10916 10919 10923 10928 10932 10934 10938 10942 10945 10944 10946 10950 10952 10953 10952 10953 10953 10952 10952 10952 10951 10950 10951 10950 10946
10779 10797 10806 10816 10823 10831 10838 10841 10843 10852 10857 10866 10872 10871 10871 10876 10884 10892 10897 10902 10907 10913 10919 10920 10927 10929 10932 10935 10936 10937 10940 10943 10945 10944 10944 10945 10944 10944 10944 10943 10942 10940 10938 10936
10760 10774 10789 10804 10808 10803 10815 10822 10829 10839 10851 10856 10866 10862 10848 10857 10865 10873 10881 10887 10891 10898 10903 10910 10919 10923 10923 10922 10925 10929 10932 10934 10935 10935 10935 10935 10935 10936 10935 10934 10933 10932 10929 10925
10740 10761 10763 10784 10788 10788 10801 10807 10812 10826 10835 10848 10850 10852 10844 10836 10849 10858 10868 10871 10884 10889 10893 10901 10906 10910 10912 10913 10916 10917 10922 10925 10927 10927 10925 10925 10925 10925 10924 10924 10924 10922 10921 10917
10708 10736 10740 10760 10767 10770 10777 10785 10802 10812 10817 10831 10835 10838 10838 10829 10836 10846 10853 10862 10869 10874 10883 10891 10893 10897 10903 10904 10905 10910 10910 10913 10916 10917 10916 10914 10914 10913 10912 10912 10913 10911 10911 10909
10672 10700 10717 10739 10743 10746 10733 10785 10789 10794 10799 10811 10818 10821 10819 10824 10821 10829 10836 10841 10849 10855 10864 10868 10877 10884 10889 10893 10895 10899 10901 10900 10902 10905 10905 10902 10902 10901 10899 10899 10900 10901 10899 10897
10647 10664 10677 10710 10710 10702 10765 10760 10764 10769 10780 10791 10797 10805 10808 10811 10811 10807 10817 10826 10831 10836 10842 10851 10855 10867 10872 10876 10880 10880 10882 10886 10886 10889 10892 10890 10888 10886 10885 10887 10887 10887 10886 10886
10621 10622 10652 10672 10674 10699 10730 10739 10742 10748 10764 10768 10781 10790 10795 10794 10790 10802 10803 10810 10815 10818 10826 10830 10841 10847 10851 10859 10866 10868 10874 10873 10872 10869 10872 10874 10873 10873 10871 10872 10871 10871 10871 10871
10584 10592 10607 10635 10651 10672 10715 10721 10722 10717 10732 10752 10770 10776 10782 10781 10780 10789 10792 10791 10797 10805 10806 10809 10810 10821 10821 10836 10843 10848 10854 10855 10860 10856 10854 10855 10857 10859 10858 10854 10856 10855 10857 10858
10544 10559 10570 10595 10627 10658 10678 10688 10697 10686 10715 10740 10752 10762 10766 10768 10770 10774 10776 10779 10783 10791 10794 10793 10795 10802 10805 10814 10820 10829 10834 10839 10844 10840 10839 10837 10840 10841 10841 10842 10841 10838 10843 10846
10515 10533 10562 10579 10601 10631 10653 10669 10676 10688 10700 10724 10732 10744 10751 10757 10760 10760 10760 10762 10768 10772 10775 10778 10780 10782 10787 10790 10800 10807 10814 10822 10822 10822 10827 10826 10826 10825 10827 10829 10828 10827 10833 10833
10485 10509 10551 10562 10579 10592 10628 10651 10659 10674 10691 10708 10716 10728 10735 10741 10745 10745 10744 10743 10748 10754 10758 10762 10764 10767 10770 10774 10778 10786 10796 10798 10805 10805 10808 10811 10814 10817 10817 10816 10818 10820 10823 10820
10468 10497 10523 10540 10558 10567 10603 10633 10646 10657 10674 10688 10701 10711 10718 10724 10728 10731 10730 10729 10732 10737 10743 10748 10752 10754 10758 10760 10764 10774 10783 10786 10790 10791 10790 10789 10798 10805 10812 10806 10809 10814 10813 10804
10459 10481 10510 10528 10540 10556 10587 10606 10628 10643 10658 10670 10683 10694 10701 10705 10708 10711 10714 10717 10723 10726 10729 10730 10734 10739 10744 10750 10754 10757 10762 10769 10775 10771 10772 10775 10776 10780 10789 10795 10800 10807 10813 10800
10444 10473 10501 10517 10526 10545 10572 10597 10616 10632 10645 10657 10667 10676 10681 10686 10689 10694 10701 10706 10710 10712 10713 10717 10722 10727 10731 10737 10743 10746 10745 10747 10752 10755 10759 10764 10769 10772 10774 10783 10792 10801 10813 10793